Time,TemperatureF,DewpointF,PressureIn,WindDirection,WindDirectionDegrees,WindSpeedMPH,WindSpeedGustMPH,Humidity,HourlyPrecipIn,Conditions,Clouds,dailyrainin,SoftwareType,DateUTC
2013-07-19 00:01:00,80.8,74.8,30.14,SW,235,13.6,16.8,82,0.00, ,,-99.99,VWS V12.07,2013-07-19 04:01:00,
2013-07-19 00:03:00,80.9,74.9,30.14,WSW,254,9.0,16.8,82,0.00, ,,-99.99,VWS V12.07,2013-07-19 04:03:00,
2013-07-19 00:04:00,80.3,74.4,30.14,WSW,243,11.6,16.8,82,0.00, ,,-99.99,VWS V12.07,2013-07-19 04:04:00,
2013-07-19 00:05:00,81.3,75.3,30.14,SW,232,8.6,16.8,82,0.00, ,,-99.99,VWS V12.07,2013-07-19 04:05:00,
2013-07-19 00:10:00,81.0,74.9,30.13,WSW,249,11.6,18.6,82,0.00, ,,-99.99,VWS V12.07,2013-07-19 04:10:00,
2013-07-19 00:14:00,80.6,74.4,30.13,SSW,213,11.6,18.6,82,0.00, ,,-99.99,VWS V12.07,2013-07-19 04:14:00,
2013-07-19 00:19:00,80.5,74.5,30.13,WSW,253,9.7,16.5,82,0.00, ,,-99.99,VWS V12.07,2013-07-19 04:19:00,
2013-07-19 00:24:00,80.9,75.3,30.13,SW,232,12.8,17.3,83,0.00, ,,-99.99,VWS V12.07,2013-07-19 04:24:00,
2013-07-19 00:29:00,81.5,76.3,30.13,SSW,209,13.8,17.3,84,0.00, ,,-99.99,VWS V12.07,2013-07-19 04:29:00,
2013-07-19 00:34:00,80.9,76.1,30.13,SW,230,11.7,17.3,85,0.00, ,,-99.99,VWS V12.07,2013-07-19 04:34:00,
2013-07-19 00:39:00,80.7,76.2,30.13,WSW,254,9.5,16.6,86,0.00, ,,-99.99,VWS V12.07,2013-07-19 04:39:00,
2013-07-19 00:44:00,81.1,76.7,30.13,West,260,9.9,17.6,86,0.00, ,,-99.99,VWS V12.07,2013-07-19 04:44:00,
2013-07-19 00:49:00,80.5,75.8,30.13,WSW,247,13.4,17.7,86,0.00, ,,-99.99,VWS V12.07,2013-07-19 04:49:00,
2013-07-19 00:55:00,80.3,74.9,30.13,WSW,244,12.6,12.6,84,0.00, ,,-99.99,VWS V12.07,2013-07-19 04:55:00,
2013-07-19 01:00:00,80.8,75.5,30.13,WSW,253,9.9,15.9,84,0.00, ,,-99.99,VWS V12.07,2013-07-19 05:00:00,
2013-07-19 01:05:00,81.0,75.8,30.13,SW,233,8.2,15.9,84,0.00, ,,-99.99,VWS V12.07,2013-07-19 05:05:00,
2013-07-19 01:10:00,81.0,76.1,30.13,WSW,257,11.0,16.2,85,0.00, ,,-99.99,VWS V12.07,2013-07-19 05:10:00,
2013-07-19 01:15:00,80.8,76.2,30.13,SW,230,8.3,8.6,86,0.00, ,,-99.99,VWS V12.07,2013-07-19 05:15:00,
2013-07-19 01:20:00,80.7,76.3,30.13,WSW,244,11.1,16.6,87,0.00, ,,-99.99,VWS V12.07,2013-07-19 05:20:00,
2013-07-19 01:25:00,81.2,77.0,30.13,WSW,247,11.2,16.6,87,0.00, ,,-99.99,VWS V12.07,2013-07-19 05:25:00,
2013-07-19 01:30:00,80.5,76.3,30.12,WSW,240,10.2,18.9,87,0.00, ,,-99.99,VWS V12.07,2013-07-19 05:30:00,
2013-07-19 01:35:00,80.5,76.3,30.12,WSW,240,10.5,10.5,87,0.00, ,,-99.99,VWS V12.07,2013-07-19 05:35:00,
2013-07-19 01:40:00,80.5,76.2,30.12,West,270,9.4,18.1,87,0.00, ,,-99.99,VWS V12.07,2013-07-19 05:40:00,
2013-07-19 01:46:00,80.8,76.6,30.12,WSW,251,12.4,19.1,87,0.00, ,,-99.99,VWS V12.07,2013-07-19 05:46:00,
2013-07-19 01:51:00,80.8,76.7,30.12,WSW,250,15.0,19.6,87,0.00, ,,-99.99,VWS V12.07,2013-07-19 05:51:00,
2013-07-19 01:56:00,80.5,76.1,30.12,WSW,253,13.0,19.1,87,0.00, ,,-99.99,VWS V12.07,2013-07-19 05:56:00,
2013-07-19 02:02:00,80.5,76.2,30.12,West,261,10.7,19.1,87,0.00, ,,-99.99,VWS V12.07,2013-07-19 06:02:00,
2013-07-19 02:07:00,80.4,75.9,30.12,WSW,258,12.4,19.1,86,0.00, ,,-99.99,VWS V12.07,2013-07-19 06:07:00,
2013-07-19 02:12:00,80.6,76.3,30.12,WSW,239,11.2,19.1,87,0.00, ,,-99.99,VWS V12.07,2013-07-19 06:12:00,
2013-07-19 02:17:00,80.7,76.3,30.11,WSW,243,15.9,17.0,87,0.00, ,,-99.99,VWS V12.07,2013-07-19 06:17:00,
2013-07-19 02:22:00,80.7,76.3,30.12,WSW,242,11.0,17.0,87,0.00, ,,-99.99,VWS V12.07,2013-07-19 06:22:00,
2013-07-19 02:27:00,80.4,76.0,30.11,WSW,253,17.1,19.1,87,0.00, ,,-99.99,VWS V12.07,2013-07-19 06:27:00,
2013-07-19 02:32:00,80.6,76.3,30.11,WSW,256,10.1,19.1,87,0.00, ,,-99.99,VWS V12.07,2013-07-19 06:32:00,
2013-07-19 02:37:00,80.4,76.2,30.11,WSW,247,17.5,17.5,87,0.00, ,,-99.99,VWS V12.07,2013-07-19 06:37:00,
2013-07-19 02:42:00,80.4,76.2,30.11,SW,235,11.8,18.0,87,0.00, ,,-99.99,VWS V12.07,2013-07-19 06:42:00,
2013-07-19 02:47:00,80.4,76.1,30.11,WSW,251,10.7,18.0,87,0.00, ,,-99.99,VWS V12.07,2013-07-19 06:47:00,
2013-07-19 02:52:00,80.5,76.2,30.11,WSW,242,8.7,18.0,87,0.00, ,,-99.99,VWS V12.07,2013-07-19 06:52:00,
2013-07-19 02:57:00,80.4,76.1,30.11,WSW,239,9.1,16.6,87,0.00, ,,-99.99,VWS V12.07,2013-07-19 06:57:00,
2013-07-19 03:02:00,80.5,76.0,30.11,WSW,257,15.2,19.3,86,0.00, ,,-99.99,VWS V12.07,2013-07-19 07:02:00,
2013-07-19 03:07:00,80.1,75.6,30.11,WSW,250,12.1,19.3,86,0.00, ,,-99.99,VWS V12.07,2013-07-19 07:07:00,
2013-07-19 03:12:00,80.7,76.0,30.11,WSW,244,12.6,19.4,86,0.00, ,,-99.99,VWS V12.07,2013-07-19 07:12:00,
2013-07-19 03:17:00,80.5,75.8,30.10,WSW,244,9.8,17.5,86,0.00, ,,-99.99,VWS V12.07,2013-07-19 07:17:00,
2013-07-19 03:22:00,80.7,76.0,30.11,WSW,254,11.4,17.5,86,0.00, ,,-99.99,VWS V12.07,2013-07-19 07:22:00,
2013-07-19 03:27:00,80.5,75.9,30.10,WSW,247,11.0,17.5,86,0.00, ,,-99.99,VWS V12.07,2013-07-19 07:27:00,
2013-07-19 03:32:00,80.5,75.9,30.10,WSW,254,7.5,17.5,86,0.00, ,,-99.99,VWS V12.07,2013-07-19 07:32:00,
2013-07-19 03:37:00,80.5,75.9,30.10,WSW,239,10.4,18.4,86,0.00, ,,-99.99,VWS V12.07,2013-07-19 07:37:00,
2013-07-19 03:42:00,80.4,75.7,30.10,SW,229,11.3,18.4,86,0.00, ,,-99.99,VWS V12.07,2013-07-19 07:42:00,
2013-07-19 03:47:00,80.5,75.7,30.10,SW,223,9.8,18.4,85,0.00, ,,-99.99,VWS V12.07,2013-07-19 07:47:00,
2013-07-19 03:52:00,80.3,75.4,30.10,WSW,242,11.6,18.4,85,0.00, ,,-99.99,VWS V12.07,2013-07-19 07:52:00,
2013-07-19 03:57:00,80.4,75.6,30.10,WSW,250,14.9,16.2,85,0.00, ,,-99.99,VWS V12.07,2013-07-19 07:57:00,
2013-07-19 04:02:00,80.6,75.9,30.10,WSW,250,10.8,16.2,86,0.00, ,,-99.99,VWS V12.07,2013-07-19 08:02:00,
2013-07-19 04:07:00,80.4,75.9,30.10,WSW,239,7.6,16.2,86,0.00, ,,-99.99,VWS V12.07,2013-07-19 08:07:00,
2013-07-19 04:12:00,80.4,76.0,30.10,West,267,14.6,16.7,86,0.00, ,,-99.99,VWS V12.07,2013-07-19 08:12:00,
2013-07-19 04:17:00,80.3,75.7,30.10,SSW,211,12.4,16.5,86,0.00, ,,-99.99,VWS V12.07,2013-07-19 08:17:00,
2013-07-19 04:22:00,80.3,75.7,30.10,WSW,258,13.9,19.8,86,0.00, ,,-99.99,VWS V12.07,2013-07-19 08:22:00,
2013-07-19 04:27:00,80.3,75.8,30.10,WSW,251,11.3,19.8,86,0.00, ,,-99.99,VWS V12.07,2013-07-19 08:27:00,
2013-07-19 04:32:00,80.4,76.1,30.10,SW,233,8.6,19.8,87,0.00, ,,-99.99,VWS V12.07,2013-07-19 08:32:00,
2013-07-19 04:37:00,80.3,76.0,30.10,WSW,253,8.3,16.7,87,0.00, ,,-99.99,VWS V12.07,2013-07-19 08:37:00,
2013-07-19 04:42:00,80.1,75.8,30.10,WSW,251,11.1,17.1,87,0.00, ,,-99.99,VWS V12.07,2013-07-19 08:42:00,
2013-07-19 04:47:00,80.0,75.8,30.10,WSW,240,11.7,18.2,87,0.00, ,,-99.99,VWS V12.07,2013-07-19 08:47:00,
2013-07-19 04:52:00,80.5,76.3,30.10,WSW,242,9.5,18.2,87,0.00, ,,-99.99,VWS V12.07,2013-07-19 08:52:00,
2013-07-19 04:57:00,80.5,76.4,30.10,West,260,9.6,13.9,87,0.00, ,,-99.99,VWS V12.07,2013-07-19 08:57:00,
2013-07-19 05:02:00,80.5,76.3,30.10,WSW,239,11.1,13.9,87,0.00, ,,-99.99,VWS V12.07,2013-07-19 09:02:00,
2013-07-19 05:08:00,80.3,76.1,30.10,SW,236,7.8,17.6,87,0.00, ,,-99.99,VWS V12.07,2013-07-19 09:08:00,
2013-07-19 05:13:00,80.2,75.7,30.10,WSW,247,13.8,18.3,86,0.00, ,,-99.99,VWS V12.07,2013-07-19 09:13:00,
2013-07-19 05:18:00,80.5,76.1,30.10,West,261,9.4,13.8,86,0.00, ,,-99.99,VWS V12.07,2013-07-19 09:18:00,
2013-07-19 05:23:00,80.3,75.6,30.10,SW,230,13.5,19.2,86,0.00, ,,-99.99,VWS V12.07,2013-07-19 09:23:00,
2013-07-19 05:28:00,80.1,75.2,30.11,SSW,211,12.4,19.2,85,0.00, ,,-99.99,VWS V12.07,2013-07-19 09:28:00,
2013-07-19 05:33:00,80.4,75.6,30.11,WSW,239,11.9,19.2,85,0.00, ,,-99.99,VWS V12.07,2013-07-19 09:33:00,
2013-07-19 05:38:00,80.1,75.2,30.11,SW,226,14.4,17.0,85,0.00, ,,-99.99,VWS V12.07,2013-07-19 09:38:00,
2013-07-19 05:43:00,80.2,75.3,30.11,SW,232,8.8,17.0,85,0.00, ,,-99.99,VWS V12.07,2013-07-19 09:43:00,
2013-07-19 05:48:00,80.1,75.3,30.11,SW,228,9.7,17.0,85,0.00, ,,-99.99,VWS V12.07,2013-07-19 09:48:00,
2013-07-19 05:53:00,80.2,75.7,30.11,WSW,256,16.2,17.0,86,0.00, ,,-99.99,VWS V12.07,2013-07-19 09:53:00,
2013-07-19 05:58:00,80.3,75.8,30.11,SW,228,12.2,14.2,86,0.00, ,,-99.99,VWS V12.07,2013-07-19 09:58:00,
2013-07-19 06:03:00,80.4,75.8,30.11,WSW,258,8.9,14.2,86,0.00, ,,-99.99,VWS V12.07,2013-07-19 10:03:00,
2013-07-19 06:08:00,80.5,76.0,30.11,WSW,243,8.1,14.2,86,0.00, ,,-99.99,VWS V12.07,2013-07-19 10:08:00,
2013-07-19 06:13:00,80.2,75.6,30.11,SW,235,8.8,14.2,86,0.00, ,,-99.99,VWS V12.07,2013-07-19 10:13:00,
2013-07-19 06:18:00,80.4,76.0,30.11,WSW,240,7.1,14.2,86,0.00, ,,-99.99,VWS V12.07,2013-07-19 10:18:00,
2013-07-19 06:23:00,80.3,75.9,30.11,WSW,244,11.7,14.2,87,0.00, ,,-99.99,VWS V12.07,2013-07-19 10:23:00,
2013-07-19 06:28:00,80.5,76.0,30.11,West,261,12.7,16.3,86,0.00, ,,-99.99,VWS V12.07,2013-07-19 10:28:00,
2013-07-19 06:33:00,80.3,75.7,30.12,SW,230,13.8,16.3,86,0.00, ,,-99.99,VWS V12.07,2013-07-19 10:33:00,
2013-07-19 06:38:00,80.2,75.6,30.12,WSW,250,12.0,14.2,86,0.00, ,,-99.99,VWS V12.07,2013-07-19 10:38:00,
2013-07-19 06:43:00,80.1,75.2,30.12,WSW,256,14.7,17.7,85,0.00, ,,-99.99,VWS V12.07,2013-07-19 10:43:00,
2013-07-19 06:48:00,80.4,75.4,30.12,WSW,258,12.9,17.7,85,0.00, ,,-99.99,VWS V12.07,2013-07-19 10:48:00,
2013-07-19 06:53:00,80.2,75.4,30.13,WSW,242,11.9,17.7,85,0.00, ,,-99.99,VWS V12.07,2013-07-19 10:53:00,
2013-07-19 06:58:00,80.1,75.1,30.13,WSW,249,13.6,16.6,85,0.00, ,,-99.99,VWS V12.07,2013-07-19 10:58:00,
2013-07-19 07:03:00,80.4,75.3,30.13,WSW,247,10.6,16.6,85,0.00, ,,-99.99,VWS V12.07,2013-07-19 11:03:00,
2013-07-19 07:08:00,80.0,74.9,30.13,SSW,208,14.2,16.9,85,0.00, ,,-99.99,VWS V12.07,2013-07-19 11:08:00,
2013-07-19 07:13:00,80.4,75.3,30.13,WSW,253,13.5,16.9,84,0.00, ,,-99.99,VWS V12.07,2013-07-19 11:13:00,
2013-07-19 07:18:00,80.5,75.6,30.13,SW,236,7.7,16.2,85,0.00, ,,-99.99,VWS V12.07,2013-07-19 11:18:00,
2013-07-19 07:24:00,80.3,74.9,30.13,WSW,258,11.2,17.3,84,0.00, ,,-99.99,VWS V12.07,2013-07-19 11:24:00,
2013-07-19 07:29:00,80.4,74.9,30.13,SW,223,9.9,17.3,84,0.00, ,,-99.99,VWS V12.07,2013-07-19 11:29:00,
2013-07-19 07:34:00,80.5,75.3,30.13,SW,219,8.5,17.3,84,0.00, ,,-99.99,VWS V12.07,2013-07-19 11:34:00,
2013-07-19 07:39:00,80.4,74.9,30.13,WSW,244,14.2,18.5,84,0.00, ,,-99.99,VWS V12.07,2013-07-19 11:39:00,
2013-07-19 07:44:00,80.6,75.1,30.14,WSW,242,12.1,18.5,83,0.00, ,,-99.99,VWS V12.07,2013-07-19 11:44:00,
2013-07-19 07:50:00,80.6,75.0,30.14,SW,230,14.0,18.5,83,0.00, ,,-99.99,VWS V12.07,2013-07-19 11:50:00,
2013-07-19 07:55:00,80.8,75.2,30.14,West,281,10.4,10.4,83,0.00, ,,-99.99,VWS V12.07,2013-07-19 11:55:00,
2013-07-19 08:00:00,80.7,75.2,30.14,SW,229,12.6,15.5,84,0.00, ,,-99.99,VWS V12.07,2013-07-19 12:00:00,
2013-07-19 08:05:00,80.4,74.7,30.14,WSW,250,13.9,17.2,83,0.00, ,,-99.99,VWS V12.07,2013-07-19 12:05:00,
2013-07-19 08:10:00,81.0,75.5,30.14,WSW,242,7.6,18.3,84,0.00, ,,-99.99,VWS V12.07,2013-07-19 12:10:00,
2013-07-19 08:15:00,80.4,74.8,30.14,SW,219,13.2,13.9,83,0.00, ,,-99.99,VWS V12.07,2013-07-19 12:15:00,
2013-07-19 08:20:00,80.2,74.5,30.14,WSW,246,7.0,17.5,83,0.00, ,,-99.99,VWS V12.07,2013-07-19 12:20:00,
2013-07-19 08:25:00,80.7,75.0,30.14,SW,220,10.6,17.5,83,0.00, ,,-99.99,VWS V12.07,2013-07-19 12:25:00,
2013-07-19 08:30:00,81.1,74.8,30.14,WSW,256,17.7,17.7,81,0.00, ,,-99.99,VWS V12.07,2013-07-19 12:30:00,
2013-07-19 08:35:00,80.6,73.9,30.15,WSW,240,12.1,12.1,80,0.00, ,,-99.99,VWS V12.07,2013-07-19 12:35:00,
2013-07-19 08:40:00,81.2,74.1,30.14,SW,229,10.4,18.0,79,0.00, ,,-99.99,VWS V12.07,2013-07-19 12:40:00,
2013-07-19 08:45:00,81.3,74.2,30.15,SSW,208,14.0,18.2,79,0.00, ,,-99.99,VWS V12.07,2013-07-19 12:45:00,
2013-07-19 08:50:00,81.5,73.9,30.15,WSW,242,9.0,18.8,78,0.00, ,,-99.99,VWS V12.07,2013-07-19 12:50:00,
2013-07-19 08:55:00,81.8,74.0,30.15,South,190,10.9,13.2,77,0.00, ,,-99.99,VWS V12.07,2013-07-19 12:55:00,
2013-07-19 09:00:00,81.4,74.0,30.15,SSW,209,15.5,19.0,78,0.00, ,,-99.99,VWS V12.07,2013-07-19 13:00:00,
2013-07-19 09:05:00,81.9,74.1,30.15,WSW,244,10.2,19.0,77,0.00, ,,-99.99,VWS V12.07,2013-07-19 13:05:00,
2013-07-19 09:10:00,82.2,74.3,30.15,SW,219,18.1,19.1,77,0.00, ,,-99.99,VWS V12.07,2013-07-19 13:10:00,
2013-07-19 09:15:00,81.6,73.8,30.15,SW,235,12.1,15.8,77,0.00, ,,-99.99,VWS V12.07,2013-07-19 13:15:00,
2013-07-19 09:20:00,81.6,73.9,30.15,SW,225,11.3,16.0,78,0.00, ,,-99.99,VWS V12.07,2013-07-19 13:20:00,
2013-07-19 09:25:00,81.0,74.3,30.15,WSW,246,10.2,17.3,80,0.00, ,,-99.99,VWS V12.07,2013-07-19 13:25:00,
2013-07-19 09:29:00,81.5,74.5,30.15,West,260,9.5,17.3,79,0.00, ,,-99.99,VWS V12.07,2013-07-19 13:29:00,
2013-07-19 09:34:00,81.6,74.9,30.15,West,261,8.5,17.5,80,0.00, ,,-99.99,VWS V12.07,2013-07-19 13:34:00,
2013-07-19 09:39:00,81.7,74.4,30.15,WSW,247,12.7,14.5,79,0.00, ,,-99.99,VWS V12.07,2013-07-19 13:39:00,
2013-07-19 09:44:00,81.7,74.2,30.15,West,275,11.9,15.0,78,0.00, ,,-99.99,VWS V12.07,2013-07-19 13:44:00,
2013-07-19 09:49:00,81.7,74.2,30.15,West,267,12.1,16.0,78,0.00, ,,-99.99,VWS V12.07,2013-07-19 13:49:00,
2013-07-19 09:54:00,82.0,74.5,30.15,SW,225,8.8,16.0,78,0.00, ,,-99.99,VWS V12.07,2013-07-19 13:54:00,
2013-07-19 09:59:00,81.8,73.9,30.15,WSW,240,11.2,18.7,77,0.00, ,,-99.99,VWS V12.07,2013-07-19 13:59:00,
2013-07-19 10:04:00,82.3,74.6,30.15,SW,218,11.9,18.7,78,0.00, ,,-99.99,VWS V12.07,2013-07-19 14:04:00,
2013-07-19 10:09:00,82.1,74.6,30.16,WSW,247,14.3,18.7,78,0.00, ,,-99.99,VWS V12.07,2013-07-19 14:09:00,
2013-07-19 10:14:00,82.1,73.8,30.15,SW,229,11.9,18.7,76,0.00, ,,-99.99,VWS V12.07,2013-07-19 14:14:00,
2013-07-19 10:19:00,82.3,74.2,30.16,WSW,244,13.5,18.3,77,0.00, ,,-99.99,VWS V12.07,2013-07-19 14:19:00,
2013-07-19 10:24:00,82.2,74.4,30.15,SW,219,13.9,18.3,77,0.00, ,,-99.99,VWS V12.07,2013-07-19 14:24:00,
2013-07-19 10:29:00,82.4,74.9,30.15,SW,232,10.8,18.3,78,0.00, ,,-99.99,VWS V12.07,2013-07-19 14:29:00,
2013-07-19 10:34:00,81.8,74.0,30.15,SW,226,13.7,18.8,77,0.00, ,,-99.99,VWS V12.07,2013-07-19 14:34:00,
2013-07-19 10:40:00,82.3,74.9,30.15,WSW,254,9.7,18.3,78,0.00, ,,-99.99,VWS V12.07,2013-07-19 14:40:00,
2013-07-19 10:45:00,82.1,73.7,30.15,SSW,209,12.7,19.7,76,0.00, ,,-99.99,VWS V12.07,2013-07-19 14:45:00,
2013-07-19 10:50:00,82.5,74.1,30.15,WSW,250,10.4,19.7,76,0.00, ,,-99.99,VWS V12.07,2013-07-19 14:50:00,
2013-07-19 10:55:00,82.4,74.2,30.16,South,188,12.7,14.2,76,0.00, ,,-99.99,VWS V12.07,2013-07-19 14:55:00,
2013-07-19 11:00:00,82.8,74.7,30.16,SSW,194,11.7,17.2,76,0.00, ,,-99.99,VWS V12.07,2013-07-19 15:00:00,
2013-07-19 11:05:00,82.1,74.1,30.15,SW,222,15.8,20.8,77,0.00, ,,-99.99,VWS V12.07,2013-07-19 15:05:00,
2013-07-19 11:10:00,82.1,74.4,30.16,SSW,213,11.7,20.8,78,0.00, ,,-99.99,VWS V12.07,2013-07-19 15:10:00,
2013-07-19 11:15:00,82.7,74.4,30.16,SW,232,12.6,13.0,76,0.00, ,,-99.99,VWS V12.07,2013-07-19 15:15:00,
2013-07-19 11:20:00,82.4,75.5,30.15,SW,233,15.2,19.0,80,0.00, ,,-99.99,VWS V12.07,2013-07-19 15:20:00,
2013-07-19 11:25:00,81.7,75.4,30.15,SW,228,19.8,19.9,81,0.00, ,,-99.99,VWS V12.07,2013-07-19 15:25:00,
2013-07-19 11:30:00,81.5,74.2,30.15,SW,230,17.0,19.9,79,0.00, ,,-99.99,VWS V12.07,2013-07-19 15:30:00,
2013-07-19 11:36:00,82.2,74.9,30.15,SW,233,20.4,21.7,79,0.00, ,,-99.99,VWS V12.07,2013-07-19 15:36:00,
2013-07-19 11:41:00,81.7,75.8,30.15,SW,230,18.0,21.7,82,0.00, ,,-99.99,VWS V12.07,2013-07-19 15:41:00,
2013-07-19 11:46:00,81.5,75.7,30.15,SSW,206,13.0,21.7,83,0.00, ,,-99.99,VWS V12.07,2013-07-19 15:46:00,
2013-07-19 11:51:00,81.3,74.9,30.15,SW,228,18.5,21.7,81,0.00, ,,-99.99,VWS V12.07,2013-07-19 15:51:00,
2013-07-19 11:56:00,82.2,75.3,30.15,SW,235,18.1,19.5,80,0.00, ,,-99.99,VWS V12.07,2013-07-19 15:56:00,
2013-07-19 12:01:00,81.9,74.9,30.15,SW,216,19.6,23.0,80,0.00, ,,-99.99,VWS V12.07,2013-07-19 16:01:00,
2013-07-19 12:06:00,81.3,74.9,30.15,SW,233,18.5,23.0,81,0.00, ,,-99.99,VWS V12.07,2013-07-19 16:06:00,
2013-07-19 12:11:00,82.0,75.4,30.15,SW,223,18.3,23.0,80,0.00, ,,-99.99,VWS V12.07,2013-07-19 16:11:00,
2013-07-19 12:16:00,82.2,75.0,30.15,SSW,201,11.5,19.3,79,0.00, ,,-99.99,VWS V12.07,2013-07-19 16:16:00,
2013-07-19 12:21:00,82.0,75.6,30.15,SW,228,17.1,21.8,81,0.00, ,,-99.99,VWS V12.07,2013-07-19 16:21:00,
2013-07-19 12:26:00,81.7,75.1,30.15,SW,230,15.3,22.7,80,0.00, ,,-99.99,VWS V12.07,2013-07-19 16:26:00,
2013-07-19 12:31:00,81.6,75.2,30.15,SSW,213,18.5,22.7,81,0.00, ,,-99.99,VWS V12.07,2013-07-19 16:31:00,
2013-07-19 12:36:00,81.7,75.0,30.14,SW,216,15.7,20.3,80,0.00, ,,-99.99,VWS V12.07,2013-07-19 16:36:00,
2013-07-19 12:41:00,82.2,75.3,30.14,SSW,213,17.1,21.9,80,0.00, ,,-99.99,VWS V12.07,2013-07-19 16:41:00,
2013-07-19 12:46:00,81.8,74.7,30.14,SSW,204,16.3,22.8,79,0.00, ,,-99.99,VWS V12.07,2013-07-19 16:46:00,
2013-07-19 12:51:00,81.9,74.9,30.14,SW,235,17.5,22.8,79,0.00, ,,-99.99,VWS V12.07,2013-07-19 16:51:00,
2013-07-19 12:56:00,81.8,75.2,30.14,SW,232,19.7,21.3,81,0.00, ,,-99.99,VWS V12.07,2013-07-19 16:56:00,
2013-07-19 13:01:00,82.3,76.2,30.14,SW,226,15.0,21.7,82,0.00, ,,-99.99,VWS V12.07,2013-07-19 17:01:00,
2013-07-19 13:06:00,82.4,75.7,30.14,SW,223,16.0,21.9,80,0.00, ,,-99.99,VWS V12.07,2013-07-19 17:06:00,
2013-07-19 13:11:00,82.1,74.8,30.14,SW,220,16.2,22.2,78,0.00, ,,-99.99,VWS V12.07,2013-07-19 17:11:00,
2013-07-19 13:16:00,82.2,75.7,30.14,SW,215,13.7,21.1,81,0.00, ,,-99.99,VWS V12.07,2013-07-19 17:16:00,
2013-07-19 13:21:00,82.0,75.1,30.14,WSW,240,20.2,22.7,80,0.00, ,,-99.99,VWS V12.07,2013-07-19 17:21:00,
2013-07-19 13:26:00,82.5,75.9,30.14,SSW,209,18.4,22.8,80,0.00, ,,-99.99,VWS V12.07,2013-07-19 17:26:00,
2013-07-19 13:31:00,82.4,75.7,30.13,SW,225,19.9,22.8,80,0.00, ,,-99.99,VWS V12.07,2013-07-19 17:31:00,
2013-07-19 13:36:00,82.4,75.8,30.13,SSW,213,10.7,22.1,80,0.00, ,,-99.99,VWS V12.07,2013-07-19 17:36:00,
2013-07-19 13:41:00,82.4,75.6,30.13,SW,230,18.0,22.8,80,0.00, ,,-99.99,VWS V12.07,2013-07-19 17:41:00,
2013-07-19 13:46:00,82.4,75.5,30.13,SW,223,20.5,24.2,80,0.00, ,,-99.99,VWS V12.07,2013-07-19 17:46:00,
2013-07-19 13:51:00,81.9,75.5,30.13,SSW,199,20.6,24.2,81,0.00, ,,-99.99,VWS V12.07,2013-07-19 17:51:00,
2013-07-19 13:56:00,82.5,75.4,30.13,SW,232,21.3,24.0,79,0.00, ,,-99.99,VWS V12.07,2013-07-19 17:56:00,
2013-07-19 14:01:00,81.6,75.2,30.13,SW,223,21.0,24.5,81,0.00, ,,-99.99,VWS V12.07,2013-07-19 18:01:00,
2013-07-19 14:06:00,82.4,76.1,30.13,SSW,211,17.6,24.5,81,0.00, ,,-99.99,VWS V12.07,2013-07-19 18:06:00,
2013-07-19 14:11:00,82.1,75.6,30.12,SW,223,18.0,25.4,81,0.00, ,,-99.99,VWS V12.07,2013-07-19 18:11:00,
2013-07-19 14:16:00,82.1,75.6,30.12,SW,225,17.5,25.2,81,0.00, ,,-99.99,VWS V12.07,2013-07-19 18:16:00,
2013-07-19 14:21:00,82.3,75.8,30.12,SW,230,21.2,25.2,81,0.00, ,,-99.99,VWS V12.07,2013-07-19 18:21:00,
2013-07-19 14:26:00,82.2,76.1,30.12,SW,226,19.7,25.2,82,0.00, ,,-99.99,VWS V12.07,2013-07-19 18:26:00,
2013-07-19 14:31:00,82.5,76.0,30.11,SSW,208,22.1,25.2,81,0.00, ,,-99.99,VWS V12.07,2013-07-19 18:31:00,
2013-07-19 14:36:00,82.4,75.8,30.11,SW,219,17.4,23.5,80,0.00, ,,-99.99,VWS V12.07,2013-07-19 18:36:00,
2013-07-19 14:41:00,82.0,75.8,30.11,SSW,206,18.3,24.2,81,0.00, ,,-99.99,VWS V12.07,2013-07-19 18:41:00,
2013-07-19 14:46:00,82.4,76.3,30.11,SSW,212,15.8,26.1,82,0.00, ,,-99.99,VWS V12.07,2013-07-19 18:46:00,
2013-07-19 14:51:00,82.3,75.4,30.11,SW,235,23.4,26.1,80,0.00, ,,-99.99,VWS V12.07,2013-07-19 18:51:00,
2013-07-19 14:56:00,81.9,75.5,30.11,SW,229,21.3,24.4,81,0.00, ,,-99.99,VWS V12.07,2013-07-19 18:56:00,
2013-07-19 15:01:00,81.8,75.2,30.10,SSW,206,19.0,25.2,81,0.00, ,,-99.99,VWS V12.07,2013-07-19 19:01:00,
2013-07-19 15:06:00,82.3,74.7,30.10,SW,226,21.6,25.2,78,0.00, ,,-99.99,VWS V12.07,2013-07-19 19:06:00,
2013-07-19 15:11:00,81.8,75.1,30.10,SW,226,21.7,26.8,80,0.00, ,,-99.99,VWS V12.07,2013-07-19 19:11:00,
2013-07-19 15:16:00,82.4,75.2,30.10,SW,228,23.1,25.5,79,0.00, ,,-99.99,VWS V12.07,2013-07-19 19:16:00,
2013-07-19 15:22:00,82.1,75.4,30.10,SW,228,22.6,26.8,80,0.00, ,,-99.99,VWS V12.07,2013-07-19 19:22:00,
2013-07-19 15:27:00,81.6,74.5,30.10,SW,228,21.3,27.5,79,0.00, ,,-99.99,VWS V12.07,2013-07-19 19:27:00,
2013-07-19 15:32:00,81.6,75.0,30.10,SW,215,21.4,27.5,80,0.00, ,,-99.99,VWS V12.07,2013-07-19 19:32:00,
2013-07-19 15:37:00,82.1,75.3,30.09,SSW,204,21.1,25.7,80,0.00, ,,-99.99,VWS V12.07,2013-07-19 19:37:00,
2013-07-19 15:42:00,82.1,75.4,30.09,SW,230,21.7,26.7,80,0.00, ,,-99.99,VWS V12.07,2013-07-19 19:42:00,
2013-07-19 15:47:00,82.0,75.2,30.09,South,187,15.6,27.3,80,0.00, ,,-99.99,VWS V12.07,2013-07-19 19:47:00,
2013-07-19 15:52:00,82.1,74.5,30.09,SW,223,23.8,27.3,78,0.00, ,,-99.99,VWS V12.07,2013-07-19 19:52:00,
2013-07-19 15:57:00,82.4,75.4,30.09,SW,232,23.9,25.4,79,0.00, ,,-99.99,VWS V12.07,2013-07-19 19:57:00,
2013-07-19 16:02:00,82.1,74.4,30.08,SW,215,23.5,26.3,78,0.00, ,,-99.99,VWS V12.07,2013-07-19 20:02:00,
2013-07-19 16:07:00,82.2,74.8,30.08,SW,216,20.0,28.9,78,0.00, ,,-99.99,VWS V12.07,2013-07-19 20:07:00,
2013-07-19 16:12:00,82.3,74.8,30.08,SW,220,24.0,29.6,78,0.00, ,,-99.99,VWS V12.07,2013-07-19 20:12:00,
2013-07-19 16:17:00,81.9,75.4,30.08,SW,222,22.6,28.1,81,0.00, ,,-99.99,VWS V12.07,2013-07-19 20:17:00,
2013-07-19 16:22:00,82.2,75.5,30.08,SSW,209,26.7,28.1,80,0.00, ,,-99.99,VWS V12.07,2013-07-19 20:22:00,
2013-07-19 16:27:00,82.3,75.3,30.08,SSW,209,20.8,28.1,80,0.00, ,,-99.99,VWS V12.07,2013-07-19 20:27:00,
2013-07-19 16:32:00,82.1,75.1,30.08,SSW,197,21.6,28.1,79,0.00, ,,-99.99,VWS V12.07,2013-07-19 20:32:00,
2013-07-19 16:37:00,81.4,74.1,30.08,WSW,246,26.8,29.5,78,0.00, ,,-99.99,VWS V12.07,2013-07-19 20:37:00,
2013-07-19 16:42:00,81.3,74.0,30.08,SW,229,27.3,30.5,79,0.00, ,,-99.99,VWS V12.07,2013-07-19 20:42:00,
2013-07-19 16:47:00,82.0,74.8,30.08,SW,226,19.6,30.5,79,0.00, ,,-99.99,VWS V12.07,2013-07-19 20:47:00,
2013-07-19 16:52:00,82.1,75.2,30.08,SSW,211,18.0,30.5,80,0.00, ,,-99.99,VWS V12.07,2013-07-19 20:52:00,
2013-07-19 16:57:00,82.2,75.6,30.08,SW,219,22.9,27.4,80,0.00, ,,-99.99,VWS V12.07,2013-07-19 20:57:00,
2013-07-19 17:02:00,82.2,75.5,30.08,SW,225,21.2,27.5,80,0.00, ,,-99.99,VWS V12.07,2013-07-19 21:02:00,
2013-07-19 17:07:00,82.2,75.4,30.08,SW,228,20.0,27.5,80,0.00, ,,-99.99,VWS V12.07,2013-07-19 21:07:00,
2013-07-19 17:12:00,81.2,75.0,30.08,SW,228,18.3,29.1,81,0.00, ,,-99.99,VWS V12.07,2013-07-19 21:12:00,
2013-07-19 17:17:00,81.8,75.0,30.07,SSW,205,19.4,27.5,80,0.00, ,,-99.99,VWS V12.07,2013-07-19 21:17:00,
2013-07-19 17:22:00,81.9,75.3,30.07,SSW,199,26.5,31.1,80,0.00, ,,-99.99,VWS V12.07,2013-07-19 21:22:00,
2013-07-19 17:27:00,81.7,74.5,30.07,SW,226,25.8,31.1,79,0.00, ,,-99.99,VWS V12.07,2013-07-19 21:27:00,
2013-07-19 17:32:00,82.0,75.8,30.07,SW,232,21.7,31.1,81,0.00, ,,-99.99,VWS V12.07,2013-07-19 21:32:00,
2013-07-19 17:37:00,82.2,75.9,30.07,SW,215,18.4,24.7,81,0.00, ,,-99.99,VWS V12.07,2013-07-19 21:37:00,
2013-07-19 17:42:00,81.4,74.4,30.07,SSW,192,24.4,28.7,80,0.00, ,,-99.99,VWS V12.07,2013-07-19 21:42:00,
2013-07-19 17:47:00,81.5,74.8,30.07,SSW,211,22.6,29.1,80,0.00, ,,-99.99,VWS V12.07,2013-07-19 21:47:00,
2013-07-19 17:52:00,81.9,74.8,30.06,WSW,249,23.9,33.9,79,0.00, ,,-99.99,VWS V12.07,2013-07-19 21:52:00,
2013-07-19 17:57:00,81.4,74.4,30.06,SSW,204,26.8,28.7,79,0.00, ,,-99.99,VWS V12.07,2013-07-19 21:57:00,
2013-07-19 18:03:00,81.5,74.3,30.06,WSW,244,25.0,30.4,79,0.00, ,,-99.99,VWS V12.07,2013-07-19 22:03:00,
2013-07-19 18:08:00,81.2,74.4,30.05,SW,226,23.5,31.7,80,0.00, ,,-99.99,VWS V12.07,2013-07-19 22:08:00,
2013-07-19 18:13:00,81.8,75.7,30.06,SSW,202,22.1,31.7,82,0.00, ,,-99.99,VWS V12.07,2013-07-19 22:13:00,
2013-07-19 18:18:00,82.0,76.1,30.06,SW,229,20.9,29.4,82,0.00, ,,-99.99,VWS V12.07,2013-07-19 22:18:00,
2013-07-19 18:23:00,81.3,75.1,30.06,WSW,237,23.0,29.4,82,0.00, ,,-99.99,VWS V12.07,2013-07-19 22:23:00,
2013-07-19 18:28:00,81.4,74.7,30.05,SW,225,23.3,29.4,80,0.00, ,,-99.99,VWS V12.07,2013-07-19 22:28:00,
2013-07-19 18:33:00,81.5,74.4,30.06,SW,233,20.9,30.0,79,0.00, ,,-99.99,VWS V12.07,2013-07-19 22:33:00,
2013-07-19 18:38:00,81.7,74.5,30.05,SSW,206,21.7,27.8,79,0.00, ,,-99.99,VWS V12.07,2013-07-19 22:38:00,
2013-07-19 18:43:00,81.4,74.7,30.05,SW,222,22.7,28.6,80,0.00, ,,-99.99,VWS V12.07,2013-07-19 22:43:00,
2013-07-19 18:48:00,81.4,74.7,30.05,SSW,212,22.9,29.4,80,0.00, ,,-99.99,VWS V12.07,2013-07-19 22:48:00,
2013-07-19 18:53:00,81.4,74.9,30.05,SW,223,23.5,29.4,81,0.00, ,,-99.99,VWS V12.07,2013-07-19 22:53:00,
2013-07-19 18:58:00,81.2,74.7,30.05,SW,235,21.7,26.2,81,0.00, ,,-99.99,VWS V12.07,2013-07-19 22:58:00,
2013-07-19 19:03:00,81.3,75.3,30.06,SW,233,20.5,26.7,82,0.00, ,,-99.99,VWS V12.07,2013-07-19 23:03:00,
2013-07-19 19:08:00,80.8,74.3,30.06,SW,228,26.2,26.7,81,0.00, ,,-99.99,VWS V12.07,2013-07-19 23:08:00,
2013-07-19 19:13:00,81.1,74.7,30.05,SW,216,20.3,27.2,81,0.00, ,,-99.99,VWS V12.07,2013-07-19 23:13:00,
2013-07-19 19:18:00,81.4,75.4,30.06,WSW,237,13.6,23.9,82,0.00, ,,-99.99,VWS V12.07,2013-07-19 23:18:00,
2013-07-19 19:23:00,81.0,74.8,30.06,SW,228,21.1,24.6,82,0.00, ,,-99.99,VWS V12.07,2013-07-19 23:23:00,
2013-07-19 19:28:00,80.9,74.9,30.06,SSW,195,16.8,26.1,82,0.00, ,,-99.99,VWS V12.07,2013-07-19 23:28:00,
2013-07-19 19:33:00,80.8,75.2,30.06,SW,229,17.8,26.1,83,0.00, ,,-99.99,VWS V12.07,2013-07-19 23:33:00,
2013-07-19 19:38:00,81.0,74.9,30.06,SW,222,15.8,24.7,82,0.00, ,,-99.99,VWS V12.07,2013-07-19 23:38:00,
2013-07-19 19:43:00,80.5,75.3,30.06,SW,218,18.0,24.7,84,0.00, ,,-99.99,VWS V12.07,2013-07-19 23:43:00,
2013-07-19 19:48:00,80.5,75.4,30.05,SW,229,17.3,24.7,84,0.00, ,,-99.99,VWS V12.07,2013-07-19 23:48:00,
2013-07-19 19:53:00,80.9,76.0,30.05,SSW,206,16.1,24.7,85,0.00, ,,-99.99,VWS V12.07,2013-07-19 23:53:00,
2013-07-19 19:58:00,81.0,75.8,30.05,SW,219,15.5,18.6,84,0.00, ,,-99.99,VWS V12.07,2013-07-19 23:58:00,
2013-07-19 20:03:00,80.4,74.9,30.05,SW,228,18.5,24.2,83,0.00, ,,-99.99,VWS V12.07,2013-07-20 00:03:00,
2013-07-19 20:08:00,80.8,75.5,30.05,SSW,211,18.0,24.2,84,0.00, ,,-99.99,VWS V12.07,2013-07-20 00:08:00,
2013-07-19 20:13:00,81.0,76.0,30.06,SW,228,19.9,24.2,85,0.00, ,,-99.99,VWS V12.07,2013-07-20 00:13:00,
2013-07-19 20:18:00,80.9,75.8,30.06,SW,223,17.3,21.0,84,0.00, ,,-99.99,VWS V12.07,2013-07-20 00:18:00,
2013-07-19 20:23:00,80.8,75.2,30.06,SW,229,18.9,24.3,83,0.00, ,,-99.99,VWS V12.07,2013-07-20 00:23:00,
2013-07-19 20:28:00,80.4,74.6,30.06,WSW,237,18.8,26.5,82,0.00, ,,-99.99,VWS V12.07,2013-07-20 00:28:00,
2013-07-19 20:33:00,80.8,74.9,30.06,SW,229,22.1,26.5,82,0.00, ,,-99.99,VWS V12.07,2013-07-20 00:33:00,
2013-07-19 20:38:00,80.3,74.2,30.06,SW,236,21.9,25.0,82,0.00, ,,-99.99,VWS V12.07,2013-07-20 00:38:00,
2013-07-19 20:43:00,80.4,74.1,30.06,WSW,237,22.7,26.3,81,0.00, ,,-99.99,VWS V12.07,2013-07-20 00:43:00,
2013-07-19 20:48:00,80.6,74.4,30.06,SW,233,21.0,26.3,82,0.00, ,,-99.99,VWS V12.07,2013-07-20 00:48:00,
2013-07-19 20:53:00,80.5,75.0,30.06,SW,235,21.7,26.3,83,0.00, ,,-99.99,VWS V12.07,2013-07-20 00:53:00,
2013-07-19 20:58:00,80.4,75.0,30.07,SW,223,17.1,21.7,84,0.00, ,,-99.99,VWS V12.07,2013-07-20 00:58:00,
2013-07-19 21:03:00,80.7,75.2,30.06,SSW,212,18.6,25.0,83,0.00, ,,-99.99,VWS V12.07,2013-07-20 01:03:00,
2013-07-19 21:08:00,80.4,74.8,30.06,SW,218,17.9,25.0,83,0.00, ,,-99.99,VWS V12.07,2013-07-20 01:08:00,
2013-07-19 21:13:00,80.4,75.4,30.07,SSW,205,17.0,26.0,85,0.00, ,,-99.99,VWS V12.07,2013-07-20 01:13:00,
2013-07-19 21:18:00,80.5,75.1,30.07,SW,220,21.0,23.5,84,0.00, ,,-99.99,VWS V12.07,2013-07-20 01:18:00,
2013-07-19 21:23:00,80.6,75.5,30.07,SW,226,21.3,23.5,84,0.00, ,,-99.99,VWS V12.07,2013-07-20 01:23:00,
2013-07-19 21:28:00,80.4,75.1,30.07,SW,216,20.3,23.5,84,0.00, ,,-99.99,VWS V12.07,2013-07-20 01:28:00,
2013-07-19 21:33:00,80.6,75.1,30.07,SW,222,17.2,24.0,83,0.00, ,,-99.99,VWS V12.07,2013-07-20 01:33:00,
2013-07-19 21:38:00,80.7,75.3,30.08,SSW,208,18.0,19.2,84,0.00, ,,-99.99,VWS V12.07,2013-07-20 01:38:00,
2013-07-19 21:43:00,80.5,75.4,30.08,SW,218,17.6,21.6,84,0.00, ,,-99.99,VWS V12.07,2013-07-20 01:43:00,
2013-07-19 21:48:00,80.5,75.2,30.08,SW,228,20.9,24.9,84,0.00, ,,-99.99,VWS V12.07,2013-07-20 01:48:00,
2013-07-19 21:53:00,80.3,75.0,30.08,SW,220,21.6,24.9,84,0.00, ,,-99.99,VWS V12.07,2013-07-20 01:53:00,
2013-07-19 21:58:00,80.7,75.5,30.08,SW,218,16.3,25.4,84,0.00, ,,-99.99,VWS V12.07,2013-07-20 01:58:00,
2013-07-19 22:03:00,80.9,76.2,30.08,SW,223,17.0,25.4,86,0.00, ,,-99.99,VWS V12.07,2013-07-20 02:03:00,
2013-07-19 22:08:00,80.5,75.3,30.08,SW,228,22.9,25.4,84,0.00, ,,-99.99,VWS V12.07,2013-07-20 02:08:00,
2013-07-19 22:13:00,80.4,74.9,30.08,SSW,213,21.1,28.6,83,0.00, ,,-99.99,VWS V12.07,2013-07-20 02:13:00,
2013-07-19 22:18:00,80.5,75.5,30.08,SW,226,20.9,25.0,85,0.00, ,,-99.99,VWS V12.07,2013-07-20 02:18:00,
2013-07-19 22:23:00,80.4,75.6,30.09,SW,226,20.1,25.0,85,0.00, ,,-99.99,VWS V12.07,2013-07-20 02:23:00,
2013-07-19 22:28:00,80.3,75.9,30.09,SW,220,18.6,25.9,86,0.00, ,,-99.99,VWS V12.07,2013-07-20 02:28:00,
2013-07-19 22:33:00,80.4,75.3,30.09,WSW,237,26.0,26.4,84,0.00, ,,-99.99,VWS V12.07,2013-07-20 02:33:00,
2013-07-19 22:38:00,80.1,75.4,30.09,SW,230,18.7,24.4,86,0.00, ,,-99.99,VWS V12.07,2013-07-20 02:38:00,
2013-07-19 22:43:00,80.2,75.2,30.09,SW,220,21.9,25.0,85,0.00, ,,-99.99,VWS V12.07,2013-07-20 02:43:00,
2013-07-19 22:48:00,80.3,75.1,30.09,SW,226,25.0,26.1,84,0.00, ,,-99.99,VWS V12.07,2013-07-20 02:48:00,
2013-07-19 22:53:00,80.2,74.9,30.09,SW,225,22.9,28.5,84,0.00, ,,-99.99,VWS V12.07,2013-07-20 02:53:00,
2013-07-19 22:58:00,80.5,75.5,30.09,SW,232,19.1,23.9,85,0.00, ,,-99.99,VWS V12.07,2013-07-20 02:58:00,
2013-07-19 23:03:00,80.4,75.4,30.09,SSW,212,21.4,27.1,85,0.00, ,,-99.99,VWS V12.07,2013-07-20 03:03:00,
2013-07-19 23:08:00,80.4,75.6,30.09,SSW,211,18.1,27.1,85,0.00, ,,-99.99,VWS V12.07,2013-07-20 03:08:00,
2013-07-19 23:13:00,80.5,75.7,30.09,SW,222,20.6,27.1,85,0.00, ,,-99.99,VWS V12.07,2013-07-20 03:13:00,
2013-07-19 23:18:00,80.2,75.1,30.09,SW,215,21.4,27.0,84,0.00, ,,-99.99,VWS V12.07,2013-07-20 03:18:00,
2013-07-19 23:23:00,80.3,75.2,30.09,SSW,195,14.8,27.0,85,0.00, ,,-99.99,VWS V12.07,2013-07-20 03:23:00,
2013-07-19 23:28:00,80.3,74.6,30.09,SW,226,23.4,28.6,83,0.00, ,,-99.99,VWS V12.07,2013-07-20 03:28:00,
2013-07-19 23:33:00,80.3,74.8,30.08,SW,225,23.2,28.6,84,0.00, ,,-99.99,VWS V12.07,2013-07-20 03:33:00,
2013-07-19 23:38:00,80.3,74.4,30.08,SSW,205,21.1,27.0,82,0.00, ,,-99.99,VWS V12.07,2013-07-20 03:38:00,
2013-07-19 23:43:00,80.4,74.9,30.08,SW,230,21.6,27.0,83,0.00, ,,-99.99,VWS V12.07,2013-07-20 03:43:00,
2013-07-19 23:48:00,80.4,75.0,30.08,SSW,201,21.8,29.1,84,0.00, ,,-99.99,VWS V12.07,2013-07-20 03:48:00,
2013-07-19 23:53:00,80.3,74.8,30.08,SW,218,18.7,29.1,83,0.00, ,,-99.99,VWS V12.07,2013-07-20 03:53:00,
2013-07-19 23:58:00,80.4,75.1,30.08,SW,215,20.7,25.8,84,0.00, ,,-99.99,VWS V12.07,2013-07-20 03:58:00,